STARLINK-32869, 62859

Orbit data source: Space-Track

STARLINK-32869, 62859 is a payload satellite owned by SpaceX/Seattle (US) in LEO that was launched on Sat, 01 Feb 2025 UTC via an FALCON 9 launch vehicle from the Air Force Western Test Range (AFWTR). Payload-class satellites include a variety of spacecraft equipped with specific instruments for various scientific and technological missions. These include communications satellites like Starlink; space stations such as the ISS; scientific satellites like the Hubble; Earth observation satellites from companies like Planet Labs, Umbra, and HawkEye 360; GPS; miniature CubeSats for education and research; and military/defense satellites.

Loading next visibility...
Identifier
62859, 2025-022F
Orbit
LEO
Last TLE update
6 hours ago
Origin
Manufacturer
SpaceX/Seattle
Mission
Operational Commercial Communications
Bus & Motor
STARLINK V2M, Unknown motor
Mass
730 kg wet, ~700 kg dry
Launch date (UTC)
2025-02-01 (5 months ago)
Launch vehicle
FALCON 9
Launch site
Air Force Western Test Range (AFWTR)
Object type
Payload
Rocket body
Debris
Shape & HBR
Box + 2 Pan, 29 m
Radar Cross Section
33.884 m², Large (>1 m²)

Expand to show TLE details & history

TLE from 6 hours ago
0 STARLINK-32869
1 62859U 25022F   25182.13175258  .00028689  00000-0  72420-3 0  9992
2 62859  53.1582 218.1958 0001186 100.0200 260.0939 15.39632633 24308
Epoch: 2025-07-01T03:09Z
TLE epoch observation values (Epoch: 2025-07-01T03:09:43.422Z)
Latitude
-0.00002°
Longitude
-108.66674°
Altitude
448.237 km
Speed
7.644 km/s
True Right ascension
14h 32m 46s
True Declination
0° 00' 00"
Sunlit
Object was in full shadow at epoch
Visualization orbit readout
Latitude
-23.40481°
Longitude
89.0515°
Altitude
454.122 km
Speed
7.64 km/s
Apparent Right ascension
05h 43m 33s
Apparent Declination
-36° 20' 56"
Sunlit
Object is in daylight
Visualization observer readout
Local Sidereal Time
20:22:41
Azimuth
96.358° ESE
Elevation
-58.766°
Doppler factor
1
Orbital elements
Apogee altitude
448.262 km
Perigee altitude
446.643 km
Semi-major axis
6,825.59 km
Eccentricity
0.00012
Inclination
53.1582°
RAAN
218.1958°
Arg. of periapsis
100.02°
True anomaly
Unknown
Mean anomaly
260.0939°
Eccentric anomaly
Unknown
Mean motion
3.84887 °/min
Orbital period
93.53 mins
BSTAR
0.0007242
Loading maneuver chart data...
Loading SW <> Apogee altitude chart data...
Loading historical data...
Loading historical data...
Loading historical data...
Loading historical data...
Loading historical data...
Loading historical data...
Loading historical data...

STARLINK-32869 Visibility forecast

Observer location: undefined°, undefined°

Span
Click to sort rows by Start time (UTC) header in descending order
Start Az.
Max El. time (UTC)
Max El. Az.
Max El.
End time (UTC)
End Az.
4 mins2025-07-01 11:26:30.978Z340.621° N2025-07-01 11:28:30.978Z46.264° ENE29.811°2025-07-01 11:30:30.978Z93.528° ESE
4 mins2025-07-01 13:03:30.978Z273.331° WNW2025-07-01 13:05:30.978Z224.567° SW22.983°2025-07-01 13:07:30.978Z180.499° SSW
4 mins2025-07-02 04:15:30.978Z178.837° S2025-07-02 04:17:30.978Z126.579° SE25.141°2025-07-02 04:19:30.978Z80.217° E
5 mins2025-07-02 05:52:30.978Z272.968° WNW2025-07-02 05:54:30.978Z325.719° NNW28.506°2025-07-02 05:57:30.978Z32.536° NE
|